Location: Newark
(40.3500°N, 15.2333°E)
Time: 18:43:28
(UTC+00:00)

NOAA 19 - Visible Passes

Search period start: 27 February 2021 00:00
Search period end: 09 March 2021 00:00
Orbit: 840 x 862 km, 99.2° (Epoch: 27 February)

Date Brightness Start Highest point End Pass type
(mag) Time Alt. Az. Time Alt. Az. Time Alt. Az.
27 Feb 7.7 05:03:30 10° NE 05:08:07 28° E 05:12:45 10° SSE visible
27 Feb 7.9 18:11:12 10° SW 18:15:12 21° W 18:19:14 10° NW visible
28 Feb 8.2 04:52:08 10° NE 04:56:16 22° E 05:00:25 10° SE visible
28 Feb 7.5 17:58:49 10° SSW 18:03:21 26° W 18:07:55 10° NW visible
01 Mar 8.4 04:40:56 10° NE 04:44:24 17° E 04:47:51 10° SE visible
01 Mar 7.1 17:46:37 10° SSW 17:51:31 34° W 17:56:27 10° NNW visible
02 Mar 8.7 04:30:06 10° ENE 04:32:30 13° E 04:34:54 10° ESE visible
02 Mar 6.6 17:34:32 10° S 17:39:42 43° W 17:44:54 10° NNW visible
03 Mar 6.1 17:22:34 10° S 17:27:55 55° W 17:33:17 10° NNW visible
05 Mar 8.6 18:44:41 10° W 18:45:43 10° W 18:46:45 10° WNW visible
06 Mar 8.3 18:31:00 10° WSW 18:33:48 14° W 18:36:38 10° WNW visible
07 Mar 8.1 18:18:13 10° SW 18:21:55 18° W 18:25:38 10° NW visible
08 Mar 7.7 18:05:44 10° SSW 18:10:02 24° W 18:14:22 10° NW visible
